Time,TemperatureF,DewpointF,PressureIn,WindDirection,WindDirectionDegrees,WindSpeedMPH,WindSpeedGustMPH,Humidity,HourlyPrecipIn,Conditions,Clouds,dailyrainin,SoftwareType,DateUTC
2016-02-11 00:02:00,41.6,37.0,30.28,West,263,3.9,4.0,83,0.00,,,0.00,TxWx,2016-02-11 05:02:00,
2016-02-11 00:07:00,41.7,37.1,30.28,WNW,285,5.7,5.7,83,0.00,,,0.00,TxWx,2016-02-11 05:07:00,
2016-02-11 00:12:00,41.6,37.0,30.28,NW,305,5.7,5.7,83,0.00,,,0.00,TxWx,2016-02-11 05:12:00,
2016-02-11 00:17:00,41.5,37.0,30.28,WNW,287,4.6,5.0,84,0.00,,,0.00,TxWx,2016-02-11 05:17:00,
2016-02-11 00:22:00,41.3,37.0,30.28,West,271,4.6,4.6,84,0.00,,,0.00,TxWx,2016-02-11 05:22:00,
2016-02-11 00:27:00,41.5,37.2,30.27,WSW,254,5.0,5.0,84,0.00,,,0.00,TxWx,2016-02-11 05:27:00,
2016-02-11 00:32:00,41.4,37.0,30.27,WSW,253,4.4,4.4,84,0.00,,,0.00,TxWx,2016-02-11 05:32:00,
2016-02-11 00:37:00,41.5,37.0,30.27,WSW,253,5.9,5.9,83,0.00,,,0.00,TxWx,2016-02-11 05:37:00,
2016-02-11 00:42:00,41.4,36.8,30.27,West,266,0.9,1.0,83,0.00,,,0.00,TxWx,2016-02-11 05:42:00,
2016-02-11 00:47:00,41.3,36.9,30.27,WSW,256,1.7,1.7,84,0.00,,,0.00,TxWx,2016-02-11 05:47:00,
2016-02-11 00:57:00,41.3,37.0,30.26,WSW,253,2.4,2.4,84,0.00,,,0.00,TxWx,2016-02-11 05:57:00,
2016-02-11 01:07:00,41.5,37.3,30.26,WSW,246,3.2,3.2,85,0.00,,,0.00,TxWx,2016-02-11 06:07:00,
2016-02-11 01:17:00,40.9,37.1,30.26,SW,230,2.7,3.0,86,0.00,,,0.00,TxWx,2016-02-11 06:17:00,
2016-02-11 01:22:00,40.7,37.0,30.26,SW,232,2.6,3.0,86,0.00,,,0.00,TxWx,2016-02-11 06:22:00,
2016-02-11 01:27:00,40.5,36.9,30.26,WSW,244,3.2,4.0,86,0.00,,,0.00,TxWx,2016-02-11 06:27:00,
2016-02-11 01:32:00,40.5,37.1,30.26,WSW,251,3.9,4.0,87,0.00,,,0.00,TxWx,2016-02-11 06:32:00,
2016-02-11 01:37:00,40.5,37.2,30.26,West,264,3.9,3.9,88,0.00,,,0.00,TxWx,2016-02-11 06:37:00,
2016-02-11 01:42:00,40.5,37.4,30.26,WSW,249,2.7,3.0,88,0.00,,,0.00,TxWx,2016-02-11 06:42:00,
2016-02-11 01:47:00,40.4,37.4,30.26,WSW,244,3.5,3.5,88,0.00,,,0.00,TxWx,2016-02-11 06:47:00,
2016-02-11 01:52:00,40.4,37.6,30.26,West,263,2.6,3.0,89,0.00,,,0.00,TxWx,2016-02-11 06:52:00,
2016-02-11 01:57:00,40.3,37.5,30.26,West,261,2.7,2.7,89,0.00,,,0.00,TxWx,2016-02-11 06:57:00,
2016-02-11 02:02:00,40.4,37.6,30.26,West,261,1.5,1.5,90,0.00,,,0.00,TxWx,2016-02-11 07:02:00,
2016-02-11 02:07:00,40.3,37.6,30.26,WSW,245,1.2,1.2,90,0.00,,,0.00,TxWx,2016-02-11 07:07:00,
2016-02-11 02:12:00,40.2,37.6,30.26,SW,230,0.7,1.0,90,0.00,,,0.00,TxWx,2016-02-11 07:12:00,
2016-02-11 02:17:00,40.1,37.6,30.26,SSW,192,1.2,2.0,90,0.00,,,0.00,TxWx,2016-02-11 07:17:00,
2016-02-11 02:22:00,40.1,37.6,30.26,SSW,197,2.4,2.4,91,0.00,,,0.00,TxWx,2016-02-11 07:22:00,
2016-02-11 02:27:00,39.9,37.4,30.26,WSW,241,3.1,3.1,90,0.00,,,0.00,TxWx,2016-02-11 07:27:00,
2016-02-11 02:32:00,39.9,37.4,30.26,WSW,242,5.3,5.3,90,0.00,,,0.00,TxWx,2016-02-11 07:32:00,
2016-02-11 02:37:00,40.1,37.6,30.26,WSW,258,3.9,3.9,90,0.00,,,0.00,TxWx,2016-02-11 07:37:00,
2016-02-11 02:42:00,39.9,37.5,30.26,West,280,2.6,3.0,91,0.00,,,0.00,TxWx,2016-02-11 07:42:00,
2016-02-11 02:47:00,39.8,37.8,30.26,West,281,5.7,5.7,92,0.00,,,0.00,TxWx,2016-02-11 07:47:00,
2016-02-11 02:52:00,39.9,37.8,30.26,WNW,294,4.2,4.2,92,0.00,,,0.00,TxWx,2016-02-11 07:52:00,
2016-02-11 02:57:00,39.9,37.8,30.26,West,273,2.7,2.7,92,0.00,,,0.00,TxWx,2016-02-11 07:57:00,
2016-02-11 03:02:00,40.0,38.0,30.26,West,279,2.7,3.0,92,0.00,,,0.00,TxWx,2016-02-11 08:02:00,
2016-02-11 03:07:00,40.1,38.1,30.26,West,268,2.7,3.0,92,0.00,,,0.00,TxWx,2016-02-11 08:07:00,
2016-02-11 03:12:00,40.1,38.1,30.26,WNW,285,3.2,3.2,92,0.00,,,0.00,TxWx,2016-02-11 08:12:00,
2016-02-11 03:27:00,40.4,38.1,30.26,West,273,2.6,3.0,91,0.00,,,0.00,TxWx,2016-02-11 08:27:00,
2016-02-11 03:32:00,40.4,38.1,30.26,WNW,287,4.2,4.2,91,0.00,,,0.00,TxWx,2016-02-11 08:32:00,
2016-02-11 03:37:00,40.5,38.2,30.26,WNW,286,4.8,5.0,91,0.00,,,0.00,TxWx,2016-02-11 08:37:00,
2016-02-11 03:42:00,40.4,38.0,30.26,WNW,282,3.7,3.7,91,0.00,,,0.00,TxWx,2016-02-11 08:42:00,
2016-02-11 03:47:00,40.4,38.1,30.26,WNW,283,1.2,1.2,91,0.00,,,0.00,TxWx,2016-02-11 08:47:00,
2016-02-11 03:52:00,40.4,38.1,30.26,WNW,287,3.1,3.1,91,0.00,,,0.00,TxWx,2016-02-11 08:52:00,
2016-02-11 03:57:00,40.3,38.0,30.26,WNW,289,5.7,5.7,91,0.00,,,0.00,TxWx,2016-02-11 08:57:00,
2016-02-11 04:02:00,40.3,38.0,30.26,WNW,282,4.6,4.6,91,0.00,,,0.00,TxWx,2016-02-11 09:02:00,
2016-02-11 04:07:00,40.2,38.1,30.26,WNW,292,3.9,3.9,92,0.00,,,0.00,TxWx,2016-02-11 09:07:00,
2016-02-11 04:12:00,40.1,38.1,30.26,West,264,2.7,3.0,92,0.00,,,0.00,TxWx,2016-02-11 09:12:00,
2016-02-11 04:17:00,40.3,38.3,30.26,WSW,243,5.0,5.0,92,0.00,,,0.00,TxWx,2016-02-11 09:17:00,
2016-02-11 04:22:00,40.1,38.0,30.26,SW,236,1.1,1.1,92,0.00,,,0.00,TxWx,2016-02-11 09:22:00,
2016-02-11 04:27:00,40.2,38.1,30.26,WSW,251,1.2,1.2,92,0.00,,,0.00,TxWx,2016-02-11 09:27:00,
2016-02-11 04:32:00,40.2,38.1,30.26,West,261,2.4,2.4,92,0.00,,,0.00,TxWx,2016-02-11 09:32:00,
2016-02-11 04:37:00,40.1,38.2,30.26,WNW,290,2.2,2.2,92,0.00,,,0.00,TxWx,2016-02-11 09:37:00,
2016-02-11 04:42:00,40.0,38.2,30.26,NW,317,0.9,1.0,93,0.00,,,0.00,TxWx,2016-02-11 09:42:00,
2016-02-11 04:47:00,39.8,37.9,30.26,NNW,344,0.0,0.0,92,0.00,,,0.00,TxWx,2016-02-11 09:47:00,
2016-02-11 04:52:00,39.6,37.7,30.26,NNW,343,0.0,0.0,92,0.00,,,0.00,TxWx,2016-02-11 09:52:00,
2016-02-11 04:57:00,39.5,37.9,30.27,SE,144,0.0,0.0,93,0.00,,,0.00,TxWx,2016-02-11 09:57:00,
2016-02-11 05:02:00,39.3,37.8,30.27,SE,146,0.0,0.0,94,0.00,,,0.00,TxWx,2016-02-11 10:02:00,
2016-02-11 05:07:00,39.0,37.6,30.27,SE,145,0.0,0.0,94,0.00,,,0.00,TxWx,2016-02-11 10:07:00,
2016-02-11 05:12:00,38.7,37.5,30.27,NNE,16,0.0,0.0,95,0.00,,,0.00,TxWx,2016-02-11 10:12:00,
2016-02-11 05:17:00,38.5,37.4,30.27,North,355,0.0,0.0,95,0.00,,,0.00,TxWx,2016-02-11 10:17:00,
2016-02-11 05:22:00,38.2,37.2,30.28,NNW,348,0.0,0.0,95,0.00,,,0.00,TxWx,2016-02-11 10:22:00,
2016-02-11 05:27:00,38.0,37.0,30.28,NNW,348,0.0,0.0,96,0.00,,,0.00,TxWx,2016-02-11 10:27:00,
2016-02-11 05:32:00,37.9,37.0,30.28,NNW,348,0.0,0.0,96,0.00,,,0.00,TxWx,2016-02-11 10:32:00,
2016-02-11 05:37:00,38.0,37.3,30.29,SSE,157,0.0,0.0,97,0.00,,,0.00,TxWx,2016-02-11 10:37:00,
2016-02-11 05:42:00,38.1,37.4,30.29,SSE,158,0.0,0.0,97,0.00,,,0.00,TxWx,2016-02-11 10:42:00,
2016-02-11 05:52:00,37.7,37.2,30.29,SE,137,0.0,0.0,98,0.00,,,0.00,TxWx,2016-02-11 10:52:00,
2016-02-11 05:57:00,37.6,37.1,30.30,SE,137,0.0,0.0,98,0.00,,,0.00,TxWx,2016-02-11 10:57:00,
2016-02-11 06:02:00,37.4,37.0,30.30,SE,137,0.0,0.0,98,0.00,,,0.00,TxWx,2016-02-11 11:02:00,
2016-02-11 06:07:00,37.4,37.0,30.30,West,272,0.0,0.0,98,0.00,,,0.00,TxWx,2016-02-11 11:07:00,
2016-02-11 06:12:00,37.4,37.1,30.30,West,272,0.0,0.0,98,0.00,,,0.00,TxWx,2016-02-11 11:12:00,
2016-02-11 06:17:00,37.4,37.2,30.30,WNW,299,0.0,0.0,99,0.00,,,0.00,TxWx,2016-02-11 11:17:00,
2016-02-11 06:22:00,37.5,37.5,30.31,WNW,290,1.2,1.2,99,0.00,,,0.00,TxWx,2016-02-11 11:22:00,
2016-02-11 06:27:00,37.6,37.5,30.31,NW,315,1.7,2.0,100,0.00,,,0.00,TxWx,2016-02-11 11:27:00,
2016-02-11 06:37:00,37.7,37.6,30.31,NW,308,0.0,0.0,99,0.00,,,0.00,TxWx,2016-02-11 11:37:00,
2016-02-11 06:42:00,37.6,37.4,30.31,NW,308,0.0,0.0,99,0.00,,,0.00,TxWx,2016-02-11 11:42:00,
2016-02-11 06:47:00,37.5,37.5,30.31,North,355,1.2,1.2,100,0.00,,,0.00,TxWx,2016-02-11 11:47:00,
2016-02-11 06:52:00,37.6,37.6,30.31,NNE,19,2.7,3.0,100,0.00,,,0.00,TxWx,2016-02-11 11:52:00,
2016-02-11 06:57:00,37.8,37.8,30.31,North,3,0.9,0.0,100,0.00,,,0.00,TxWx,2016-02-11 11:57:00,